EJU7WL EPKK-EHAM

Flight info

Callsign EJU7WL
Flight time 1h 40m
Altitude 38000
Route OMFOL T738 EKSEK DCT NAROX DCT ZUCKA DCT NORKU
Aircraft A320/M-SDE3FGHIRWY/LB1

Departure

Time 2026-05-04 17:49
Airport Kraków John Paul II International Airport (EPKK)

Arrival

Time 2026-05-04 19:30
Airport Amsterdam Airport Schiphol (EHAM)
Time Latitude Longitude Altitude Speed Heading
2026-05-04 17:19 50.07472 19.80080 789 ft 0 kts 168°
2026-05-04 17:44 50.07457 19.80085 789 ft 4 kts 168°
2026-05-04 17:44 50.07430 19.80094 789 ft 5 kts 167°
2026-05-04 17:45 50.07419 19.80149 789 ft 6 kts 79°
2026-05-04 17:45 50.07431 19.80241 789 ft 9 kts 78°
2026-05-04 17:45 50.07444 19.80335 789 ft 9 kts 76°
2026-05-04 17:45 50.07482 19.80384 789 ft 7 kts 15°
2026-05-04 17:46 50.07525 19.80404 789 ft 6 kts 17°
2026-05-04 17:46 50.07578 19.80424 789 ft 13 kts 359°
2026-05-04 17:46 50.07667 19.80396 789 ft 13 kts 347°
2026-05-04 17:46 50.07756 19.80367 789 ft 13 kts 347°
2026-05-04 17:47 50.07832 19.80340 789 ft 9 kts 347°
2026-05-04 17:47 50.07886 19.80322 789 ft 8 kts 348°
2026-05-04 17:47 50.07953 19.80300 788 ft 11 kts 347°
2026-05-04 17:47 50.08011 19.80229 788 ft 12 kts 287°
2026-05-04 17:48 50.08006 19.80143 789 ft 0 kts 259°
2026-05-04 17:48 50.08002 19.80111 789 ft 16 kts 259°
2026-05-04 17:49 50.07918 19.79518 789 ft 92 kts 258°
2026-05-04 17:49 50.07741 19.78232 792 ft 149 kts 258°
2026-05-04 17:49 50.07520 19.76598 1315 ft 153 kts 259°
2026-05-04 17:49 50.07306 19.74980 2035 ft 152 kts 257°
2026-05-04 17:50 50.07078 19.73303 2495 ft 170 kts 255°
2026-05-04 17:50 50.06793 19.71411 2884 ft 189 kts 254°
2026-05-04 17:50 50.06463 19.69284 3220 ft 216 kts 255°
2026-05-04 17:50 50.06133 19.66850 3681 ft 241 kts 256°
2026-05-04 17:51 50.05782 19.64216 4412 ft 253 kts 256°
2026-05-04 17:51 50.05426 19.61548 5341 ft 257 kts 256°
2026-05-04 17:51 50.05046 19.58778 6294 ft 261 kts 257°
2026-05-04 17:51 50.04950 19.55974 7113 ft 269 kts 278°
2026-05-04 17:52 50.05515 19.53172 7986 ft 274 kts 288°
2026-05-04 17:52 50.06191 19.50346 8895 ft 277 kts 288°
2026-05-04 17:52 50.06878 19.47510 9788 ft 281 kts 288°
2026-05-04 17:52 50.07581 19.44602 10328 ft 298 kts 288°
2026-05-04 17:53 50.08320 19.41521 10681 ft 317 kts 288°
2026-05-04 17:53 50.09101 19.38258 11368 ft 324 kts 288°
2026-05-04 17:53 50.09893 19.34949 12156 ft 328 kts 287°
2026-05-04 17:53 50.10696 19.31601 12953 ft 332 kts 287°
2026-05-04 17:54 50.11504 19.28224 13729 ft 335 kts 287°
2026-05-04 17:54 50.12319 19.24795 14446 ft 338 kts 287°
2026-05-04 17:54 50.13138 19.21336 15153 ft 341 kts 287°
2026-05-04 17:54 50.13959 19.17858 15849 ft 344 kts 287°
2026-05-04 17:55 50.14788 19.14346 16534 ft 347 kts 287°
2026-05-04 17:55 50.15625 19.10800 17233 ft 350 kts 287°
2026-05-04 17:55 50.16467 19.07224 17916 ft 353 kts 287°
2026-05-04 17:55 50.17315 19.03611 18543 ft 356 kts 287°
2026-05-04 17:56 50.18167 18.99968 19108 ft 359 kts 287°
2026-05-04 17:56 50.19029 18.96286 19671 ft 363 kts 288°
2026-05-04 17:56 50.19901 18.92567 20235 ft 367 kts 288°
2026-05-04 17:56 50.20781 18.88806 20800 ft 370 kts 288°
2026-05-04 17:57 50.21669 18.85000 21361 ft 374 kts 288°
2026-05-04 17:57 50.22560 18.81177 21919 ft 378 kts 288°
2026-05-04 17:57 50.23464 18.77299 22469 ft 381 kts 289°
2026-05-04 17:57 50.24373 18.73384 23031 ft 385 kts 289°
2026-05-04 17:58 50.25288 18.69434 23562 ft 389 kts 289°
2026-05-04 17:58 50.26195 18.65514 24037 ft 390 kts 289°
2026-05-04 17:58 50.27129 18.61468 24564 ft 391 kts 289°
2026-05-04 17:58 50.28048 18.57466 25105 ft 392 kts 289°
2026-05-04 17:59 50.29001 18.53461 25660 ft 392 kts 290°
2026-05-04 17:59 50.29969 18.49472 26231 ft 392 kts 290°
2026-05-04 17:59 50.31856 18.41385 27011 ft 400 kts 289°
2026-05-04 18:00 50.32778 18.37318 27270 ft 406 kts 289°
2026-05-04 18:00 50.33728 18.33125 27556 ft 410 kts 289°
2026-05-04 18:00 50.34671 18.28898 27877 ft 414 kts 289°
2026-05-04 18:00 50.35609 18.24621 28222 ft 417 kts 288°
2026-05-04 18:01 50.36555 18.20326 28653 ft 417 kts 289°
2026-05-04 18:01 50.37524 18.16034 29055 ft 419 kts 289°
2026-05-04 18:01 50.38496 18.11726 29437 ft 420 kts 289°
2026-05-04 18:02 50.40629 18.03147 30136 ft 424 kts 293°
2026-05-04 18:02 50.41828 17.98923 30423 ft 425 kts 294°
2026-05-04 18:02 50.43064 17.94698 30707 ft 427 kts 294°
2026-05-04 18:02 50.44308 17.90458 30986 ft 428 kts 294°
2026-05-04 18:03 50.45541 17.86194 31258 ft 430 kts 293°
2026-05-04 18:03 50.46754 17.81919 31652 ft 427 kts 293°
2026-05-04 18:03 50.47943 17.77663 32073 ft 425 kts 292°
2026-05-04 18:03 50.49115 17.73417 32496 ft 422 kts 292°
2026-05-04 18:04 50.50279 17.69181 32909 ft 421 kts 292°
2026-05-04 18:04 50.51436 17.64975 33300 ft 419 kts 292°
2026-05-04 18:04 50.53744 17.56594 34042 ft 417 kts 292°
2026-05-04 18:05 50.54894 17.52402 34357 ft 416 kts 292°
2026-05-04 18:05 50.56038 17.48225 34661 ft 415 kts 292°
2026-05-04 18:05 50.57164 17.44117 34951 ft 415 kts 292°
2026-05-04 18:05 50.58304 17.39957 35264 ft 413 kts 292°
2026-05-04 18:06 50.60581 17.31606 35823 ft 412 kts 292°
2026-05-04 18:06 50.61692 17.27517 36071 ft 412 kts 292°
2026-05-04 18:06 50.62830 17.23328 36316 ft 411 kts 292°
2026-05-04 18:07 50.63940 17.19240 36548 ft 411 kts 292°
2026-05-04 18:07 50.65066 17.15090 36782 ft 411 kts 292°
2026-05-04 18:07 50.66189 17.10952 37009 ft 411 kts 292°
2026-05-04 18:07 50.67307 17.06818 37228 ft 410 kts 291°
2026-05-04 18:08 50.68423 17.02666 37466 ft 410 kts 291°
2026-05-04 18:08 50.69530 16.98525 37701 ft 409 kts 291°
2026-05-04 18:08 50.70636 16.94386 37908 ft 410 kts 291°
2026-05-04 18:08 50.71742 16.90246 37945 ft 409 kts 291°
2026-05-04 18:09 50.76141 16.73738 37946 ft 408 kts 291°
2026-05-04 18:10 50.78332 16.65474 37947 ft 408 kts 291°
2026-05-04 18:10 50.80520 16.57212 37948 ft 407 kts 291°
2026-05-04 18:11 50.82681 16.49003 37948 ft 407 kts 291°
2026-05-04 18:11 50.84851 16.40729 37952 ft 407 kts 291°
2026-05-04 18:12 50.86667 16.33795 37957 ft 406 kts 291°
2026-05-04 18:12 50.88821 16.25533 37960 ft 406 kts 291°
2026-05-04 18:13 50.90959 16.17279 37977 ft 405 kts 290°
2026-05-04 18:14 50.94141 16.04962 37983 ft 403 kts 290°
2026-05-04 18:14 50.96262 15.96728 37980 ft 402 kts 290°
2026-05-04 18:15 51.00467 15.80302 37973 ft 401 kts 290°
2026-05-04 18:16 51.02554 15.72080 37982 ft 401 kts 290°
2026-05-04 18:16 51.04640 15.63861 37969 ft 401 kts 290°
2026-05-04 18:17 51.07753 15.51508 37960 ft 401 kts 290°
2026-05-04 18:18 51.10861 15.39149 37962 ft 401 kts 290°
2026-05-04 18:18 51.12929 15.30885 37963 ft 401 kts 289°
2026-05-04 18:19 51.15995 15.18532 37951 ft 402 kts 289°
2026-05-04 18:19 51.18044 15.10245 37952 ft 402 kts 289°
2026-05-04 18:20 51.20074 15.01928 37965 ft 402 kts 286°
2026-05-04 18:20 51.21342 14.93290 37963 ft 400 kts 280°
2026-05-04 18:21 51.22489 14.84588 37966 ft 400 kts 280°
2026-05-04 18:21 51.23632 14.75909 37976 ft 400 kts 280°
2026-05-04 18:22 51.24770 14.67216 37973 ft 400 kts 280°
2026-05-04 18:22 51.25888 14.58558 37969 ft 400 kts 280°
2026-05-04 18:23 51.27007 14.49855 37972 ft 400 kts 280°
2026-05-04 18:23 51.28124 14.41143 37987 ft 400 kts 279°
2026-05-04 18:24 51.29234 14.32420 37988 ft 400 kts 279°
2026-05-04 18:24 51.30337 14.23714 37988 ft 399 kts 279°
2026-05-04 18:25 51.31426 14.15020 37983 ft 399 kts 279°
2026-05-04 18:25 51.32502 14.06387 37986 ft 399 kts 279°
2026-05-04 18:26 51.33581 13.97692 37984 ft 398 kts 279°
2026-05-04 18:26 51.34655 13.89003 37977 ft 398 kts 279°
2026-05-04 18:27 51.35723 13.80308 37976 ft 398 kts 279°
2026-05-04 18:27 51.36779 13.71614 37977 ft 398 kts 279°
2026-05-04 18:28 51.37831 13.62911 37973 ft 398 kts 279°
2026-05-04 18:28 51.38868 13.54242 37975 ft 398 kts 279°
2026-05-04 18:29 51.39902 13.45522 37975 ft 399 kts 278°
2026-05-04 18:29 51.40933 13.36798 37969 ft 399 kts 278°
2026-05-04 18:30 51.42480 13.23671 37970 ft 399 kts 278°
2026-05-04 18:31 51.43509 13.14922 37969 ft 399 kts 278°
2026-05-04 18:31 51.44531 13.06160 37967 ft 399 kts 278°
2026-05-04 18:32 51.45532 12.97393 37963 ft 400 kts 278°
2026-05-04 18:32 51.46528 12.88592 37957 ft 401 kts 278°
2026-05-04 18:33 51.47518 12.79789 37960 ft 401 kts 278°
2026-05-04 18:33 51.48504 12.71027 37955 ft 402 kts 278°
2026-05-04 18:34 51.49494 12.62201 37952 ft 402 kts 278°
2026-05-04 18:34 51.50478 12.53367 37966 ft 402 kts 278°
2026-05-04 18:35 51.51456 12.44518 37960 ft 402 kts 278°
2026-05-04 18:35 51.52426 12.35671 37953 ft 402 kts 277°
2026-05-04 18:36 51.53386 12.26823 37953 ft 402 kts 277°
2026-05-04 18:36 51.54341 12.17969 37964 ft 402 kts 277°
2026-05-04 18:37 51.55290 12.09110 37982 ft 402 kts 277°
2026-05-04 18:37 51.56227 12.00260 37982 ft 401 kts 277°
2026-05-04 18:38 51.57151 11.91491 37976 ft 400 kts 277°
2026-05-04 18:38 51.58072 11.82668 37977 ft 400 kts 277°
2026-05-04 18:39 51.58981 11.73859 37964 ft 400 kts 277°
2026-05-04 18:39 51.59885 11.65058 37959 ft 399 kts 277°
2026-05-04 18:40 51.60789 11.56231 37961 ft 400 kts 276°
2026-05-04 18:40 51.61681 11.47458 37957 ft 400 kts 276°
2026-05-04 18:41 51.62569 11.38617 37946 ft 400 kts 276°
2026-05-04 18:41 51.63448 11.29782 37946 ft 400 kts 276°
2026-05-04 18:42 51.64321 11.20937 37967 ft 400 kts 276°
2026-05-04 18:42 51.65188 11.12083 37976 ft 401 kts 276°
2026-05-04 18:43 51.66056 11.03203 37965 ft 402 kts 276°
2026-05-04 18:43 51.66915 10.94304 37961 ft 402 kts 276°
2026-05-04 18:44 51.68018 10.85435 37963 ft 405 kts 281°
2026-05-04 18:44 51.69397 10.76632 37967 ft 405 kts 281°
2026-05-04 18:45 51.70765 10.67816 37981 ft 406 kts 281°
2026-05-04 18:45 51.72123 10.58974 37966 ft 407 kts 281°
2026-05-04 18:46 51.73484 10.50106 37976 ft 408 kts 281°
2026-05-04 18:46 51.74837 10.41262 37979 ft 408 kts 281°
2026-05-04 18:47 51.76184 10.32352 37981 ft 409 kts 281°
2026-05-04 18:47 51.77528 10.23420 38001 ft 409 kts 281°
2026-05-04 18:48 51.78873 10.14489 38002 ft 409 kts 281°
2026-05-04 18:48 51.80202 10.05560 37999 ft 409 kts 280°
2026-05-04 18:49 51.81523 9.96640 37993 ft 408 kts 280°
2026-05-04 18:49 51.82845 9.87712 37995 ft 408 kts 280°
2026-05-04 18:50 51.84157 9.78776 37995 ft 408 kts 280°
2026-05-04 18:50 51.85458 9.69851 38007 ft 408 kts 280°
2026-05-04 18:51 51.86748 9.60913 37996 ft 408 kts 280°
2026-05-04 18:51 51.88031 9.51974 37994 ft 408 kts 280°
2026-05-04 18:52 51.89317 9.43026 37996 ft 408 kts 279°
2026-05-04 18:52 51.90593 9.34090 37981 ft 408 kts 279°
2026-05-04 18:53 51.91862 9.25128 37977 ft 408 kts 279°
2026-05-04 18:53 51.93122 9.16171 37994 ft 408 kts 279°
2026-05-04 18:54 51.94373 9.07210 37988 ft 408 kts 279°
2026-05-04 18:54 51.95617 8.98235 37992 ft 407 kts 279°
2026-05-04 18:55 51.96843 8.89332 37990 ft 407 kts 279°
2026-05-04 18:55 51.98687 8.75877 37995 ft 408 kts 279°
2026-05-04 18:56 51.99914 8.66888 37985 ft 408 kts 279°
2026-05-04 18:56 52.01135 8.57888 37980 ft 409 kts 279°
2026-05-04 18:57 52.02146 8.50399 37981 ft 409 kts 279°
2026-05-04 18:57 52.03354 8.41355 37983 ft 409 kts 279°
2026-05-04 18:58 52.04552 8.32313 37836 ft 412 kts 279°
2026-05-04 18:58 52.05152 8.27765 37521 ft 411 kts 278°
2026-05-04 18:58 52.05749 8.23230 37245 ft 410 kts 278°
2026-05-04 18:59 52.06342 8.18711 36979 ft 409 kts 278°
2026-05-04 18:59 52.06934 8.14193 36712 ft 408 kts 278°
2026-05-04 18:59 52.07527 8.09663 36449 ft 407 kts 278°
2026-05-04 18:59 52.08113 8.05180 36189 ft 407 kts 278°
2026-05-04 19:00 52.08700 8.00680 35939 ft 406 kts 277°
2026-05-04 19:00 52.09280 7.96201 35679 ft 405 kts 277°
2026-05-04 19:00 52.09858 7.91725 35429 ft 404 kts 277°
2026-05-04 19:00 52.10434 7.87251 35191 ft 403 kts 277°
2026-05-04 19:01 52.11003 7.82796 34941 ft 400 kts 277°
2026-05-04 19:01 52.11568 7.78387 34699 ft 395 kts 276°
2026-05-04 19:01 52.12125 7.74028 34456 ft 392 kts 276°
2026-05-04 19:01 52.12677 7.69702 34218 ft 389 kts 276°
2026-05-04 19:02 52.13212 7.65460 33979 ft 386 kts 276°
2026-05-04 19:02 52.13746 7.61198 33704 ft 384 kts 276°
2026-05-04 19:02 52.14280 7.56952 33426 ft 382 kts 276°
2026-05-04 19:02 52.14810 7.52724 33151 ft 380 kts 276°
2026-05-04 19:03 52.15337 7.48508 32864 ft 379 kts 276°
2026-05-04 19:03 52.15859 7.44314 32612 ft 377 kts 276°
2026-05-04 19:03 52.16378 7.40135 32340 ft 374 kts 276°
2026-05-04 19:03 52.16890 7.36003 31909 ft 370 kts 276°
2026-05-04 19:04 52.17393 7.31918 31468 ft 366 kts 276°
2026-05-04 19:04 52.17890 7.27870 31032 ft 363 kts 276°
2026-05-04 19:04 52.18383 7.23853 30610 ft 360 kts 276°
2026-05-04 19:04 52.18871 7.19868 30195 ft 357 kts 276°
2026-05-04 19:05 52.19351 7.15924 29749 ft 354 kts 276°
2026-05-04 19:05 52.19825 7.12003 29351 ft 349 kts 276°
2026-05-04 19:05 52.20291 7.08149 28965 ft 345 kts 276°
2026-05-04 19:05 52.20752 7.04330 28588 ft 340 kts 276°
2026-05-04 19:06 52.21281 7.00595 28216 ft 338 kts 283°
2026-05-04 19:06 52.22185 6.97050 27843 ft 340 kts 292°
2026-05-04 19:06 52.23501 6.93725 27370 ft 361 kts 303°
2026-05-04 19:06 52.25111 6.90512 26890 ft 369 kts 304°
2026-05-04 19:07 52.26746 6.87263 26401 ft 371 kts 305°
2026-05-04 19:07 52.28383 6.84008 25917 ft 370 kts 305°
2026-05-04 19:07 52.30009 6.80753 25433 ft 369 kts 305°
2026-05-04 19:07 52.31626 6.77508 24953 ft 368 kts 306°
2026-05-04 19:08 52.33243 6.74262 24486 ft 367 kts 306°
2026-05-04 19:08 52.34854 6.71028 23993 ft 367 kts 306°
2026-05-04 19:08 52.36463 6.67790 23504 ft 366 kts 306°
2026-05-04 19:08 52.38063 6.64562 22976 ft 364 kts 306°
2026-05-04 19:09 52.39654 6.61353 22504 ft 362 kts 307°
2026-05-04 19:09 52.41234 6.58161 22030 ft 359 kts 307°
2026-05-04 19:09 52.42799 6.54985 21561 ft 357 kts 307°
2026-05-04 19:09 52.44355 6.51822 21095 ft 355 kts 307°
2026-05-04 19:10 52.45750 6.48513 20635 ft 351 kts 296°
2026-05-04 19:10 52.46693 6.44855 20176 ft 347 kts 285°
2026-05-04 19:10 52.47163 6.40994 19728 ft 344 kts 274°
2026-05-04 19:10 52.47355 6.37099 19280 ft 342 kts 274°
2026-05-04 19:11 52.47546 6.33208 18828 ft 341 kts 274°
2026-05-04 19:11 52.47737 6.29344 18388 ft 340 kts 274°
2026-05-04 19:11 52.47928 6.25474 17902 ft 339 kts 274°
2026-05-04 19:11 52.48118 6.21634 17451 ft 336 kts 274°
2026-05-04 19:12 52.48304 6.17826 17016 ft 334 kts 274°
2026-05-04 19:12 52.48666 6.10256 16143 ft 331 kts 274°
2026-05-04 19:12 52.48845 6.06508 15711 ft 329 kts 274°
2026-05-04 19:13 52.49025 6.02771 15267 ft 328 kts 274°
2026-05-04 19:13 52.49204 5.99044 14852 ft 327 kts 274°
2026-05-04 19:13 52.49381 5.95350 14503 ft 323 kts 274°
2026-05-04 19:13 52.49554 5.91674 14072 ft 322 kts 274°
2026-05-04 19:14 52.49720 5.88064 13600 ft 323 kts 274°
2026-05-04 19:14 52.49890 5.84390 13167 ft 320 kts 274°
2026-05-04 19:14 52.50057 5.80763 12767 ft 317 kts 274°
2026-05-04 19:14 52.50220 5.77172 12363 ft 314 kts 274°
2026-05-04 19:15 52.50380 5.73595 11913 ft 313 kts 274°
2026-05-04 19:15 52.50537 5.70049 11488 ft 311 kts 273°
2026-05-04 19:15 52.50693 5.66520 11090 ft 308 kts 274°
2026-05-04 19:15 52.50848 5.63019 10667 ft 307 kts 273°
2026-05-04 19:16 52.50900 5.59545 10286 ft 304 kts 263°
2026-05-04 19:16 52.50390 5.56216 9917 ft 300 kts 246°
2026-05-04 19:16 52.49335 5.53353 9754 ft 288 kts 231°
2026-05-04 19:16 52.48080 5.50833 9455 ft 283 kts 231°
2026-05-04 19:17 52.46846 5.48352 9211 ft 279 kts 231°
2026-05-04 19:17 52.45622 5.45890 8983 ft 278 kts 231°
2026-05-04 19:17 52.44406 5.43445 8755 ft 277 kts 231°
2026-05-04 19:17 52.43189 5.41005 8530 ft 276 kts 231°
2026-05-04 19:18 52.41977 5.38578 8302 ft 275 kts 231°
2026-05-04 19:18 52.40766 5.36157 8084 ft 273 kts 231°
2026-05-04 19:18 52.39560 5.33753 7845 ft 274 kts 231°
2026-05-04 19:18 52.38343 5.31335 7603 ft 275 kts 231°
2026-05-04 19:19 52.37125 5.28917 7398 ft 276 kts 231°
2026-05-04 19:19 52.35908 5.26499 7169 ft 275 kts 231°
2026-05-04 19:19 52.34703 5.24090 6945 ft 269 kts 231°
2026-05-04 19:19 52.33548 5.21665 6725 ft 272 kts 233°
2026-05-04 19:20 52.32393 5.19211 6504 ft 273 kts 233°
2026-05-04 19:20 52.31221 5.16765 6273 ft 273 kts 232°
2026-05-04 19:20 52.30035 5.14339 6043 ft 273 kts 232°
2026-05-04 19:20 52.28824 5.11946 5818 ft 273 kts 230°
2026-05-04 19:21 52.27589 5.09619 5603 ft 268 kts 230°
2026-05-04 19:21 52.26401 5.07413 5472 ft 256 kts 229°
2026-05-04 19:21 52.25261 5.05277 5327 ft 246 kts 229°
2026-05-04 19:21 52.23982 5.03479 5072 ft 241 kts 212°
2026-05-04 19:22 52.22543 5.02106 4881 ft 239 kts 211°
2026-05-04 19:22 52.21113 5.00702 4761 ft 240 kts 212°
2026-05-04 19:22 52.19686 4.99292 4627 ft 240 kts 212°
2026-05-04 19:22 52.18252 4.97889 4411 ft 240 kts 212°
2026-05-04 19:23 52.16815 4.96490 4215 ft 240 kts 211°
2026-05-04 19:23 52.15384 4.95109 3944 ft 239 kts 211°
2026-05-04 19:23 52.13956 4.93731 3685 ft 238 kts 211°
2026-05-04 19:23 52.12571 4.92275 3435 ft 237 kts 221°
2026-05-04 19:24 52.11548 4.90206 3184 ft 236 kts 244°
2026-05-04 19:24 52.11079 4.87694 2921 ft 230 kts 266°
2026-05-04 19:24 52.11061 4.85140 2667 ft 223 kts 273°
2026-05-04 19:24 52.11080 4.82638 2412 ft 219 kts 277°
2026-05-04 19:25 52.11459 4.80323 2158 ft 207 kts 297°
2026-05-04 19:25 52.12239 4.78423 2016 ft 197 kts 318°
2026-05-04 19:25 52.13293 4.77143 2029 ft 180 kts 337°
2026-05-04 19:25 52.14407 4.76533 2011 ft 160 kts 354°
2026-05-04 19:26 52.15446 4.76473 1991 ft 144 kts
2026-05-04 19:26 52.16425 4.76566 1996 ft 139 kts
2026-05-04 19:26 52.17378 4.76653 2005 ft 136 kts
2026-05-04 19:26 52.18329 4.76740 2008 ft 137 kts
2026-05-04 19:27 52.19273 4.76827 2014 ft 135 kts
2026-05-04 19:27 52.20215 4.76914 2010 ft 135 kts
2026-05-04 19:27 52.21159 4.77002 1911 ft 136 kts
2026-05-04 19:27 52.22119 4.77093 1714 ft 147 kts
2026-05-04 19:28 52.23203 4.77191 1554 ft 153 kts
2026-05-04 19:28 52.24233 4.77289 1195 ft 150 kts
2026-05-04 19:28 52.25274 4.77375 872 ft 144 kts
2026-05-04 19:28 52.26237 4.77455 630 ft 137 kts
2026-05-04 19:29 52.27175 4.77556 450 ft 134 kts
2026-05-04 19:29 52.28105 4.77639 256 ft 130 kts
2026-05-04 19:29 52.29003 4.77728 68 ft 129 kts
2026-05-04 19:29 52.29826 4.77805 -3 ft 97 kts
2026-05-04 19:30 52.30317 4.77852 2 ft 42 kts
2026-05-04 19:30 52.30520 4.77732 1 ft 27 kts 333°
2026-05-04 19:30 52.30622 4.77648 -2 ft 0 kts 333°
2026-05-04 19:31 52.30637 4.77636 -2 ft 5 kts 334°
2026-05-04 19:31 52.30686 4.77600 -2 ft 12 kts 341°
2026-05-04 19:31 52.30792 4.77600 -2 ft 17 kts
2026-05-04 19:32 52.30920 4.77612 -2 ft 19 kts
2026-05-04 19:32 52.31056 4.77625 -2 ft 20 kts
2026-05-04 19:32 52.31192 4.77637 -2 ft 19 kts
2026-05-04 19:32 52.31332 4.77650 -2 ft 20 kts
2026-05-04 19:33 52.31453 4.77631 -2 ft 17 kts 338°
2026-05-04 19:33 52.31540 4.77511 -2 ft 16 kts 309°
2026-05-04 19:33 52.31578 4.77339 -3 ft 16 kts 268°
2026-05-04 19:33 52.31572 4.77159 -3 ft 15 kts 267°
2026-05-04 19:34 52.31567 4.76995 -3 ft 14 kts 266°
2026-05-04 19:34 52.31559 4.76795 -3 ft 21 kts 266°
2026-05-04 19:34 52.31551 4.76554 -2 ft 22 kts 267°
2026-05-04 19:34 52.31542 4.76298 -2 ft 23 kts 266°
2026-05-04 19:35 52.31534 4.76048 -2 ft 21 kts 266°
2026-05-04 19:35 52.31527 4.75844 -2 ft 16 kts 266°
2026-05-04 19:35 52.31521 4.75672 -2 ft 15 kts 267°
2026-05-04 19:35 52.31516 4.75515 -2 ft 9 kts 266°
2026-05-04 19:36 52.31515 4.75502 -2 ft 2 kts 266°
2026-05-04 19:36 52.31500 4.75451 -2 ft 5 kts 225°
2026-05-04 19:36 52.31442 4.75437 -2 ft 12 kts 173°
2026-05-04 19:36 52.31361 4.75446 -2 ft 11 kts 177°
2026-05-04 19:37 52.31299 4.75451 -2 ft 4 kts 180°
2026-05-04 19:37 52.31281 4.75428 -2 ft 3 kts 241°
2026-05-04 19:37 52.31278 4.75403 -2 ft 2 kts 262°
2026-05-04 19:37 52.31277 4.75361 -2 ft 4 kts 266°
2026-05-04 19:38 52.31275 4.75331 -2 ft 3 kts 266°
2026-05-04 19:38 52.31275 4.75312 -2 ft 0 kts 266°
2026-05-04 19:38 52.31275 4.75303 -2 ft 1 kts 267°
2026-05-04 19:38 52.31274 4.75302 -2 ft 0 kts 267°